Location: Dvur Kralove nad Labem
(50.4330°N, 15.8170°E)
Time: 15:04:08
(UTC+02:00)

ISS - Pass Details

Date: 23 May 2018
Orbit: 402 x 407 km, 51.6° (Epoch: 24 May)

Event Time Altitude Azimuth Distance (km) Brightness Sun altitude
Rises 02:12:53 0° 286° (WNW) 2,320 0.0 -16.9°
Reaches altitude 10° 02:14:59 10° 283° (WNW) 1,459 -1.1 -16.8°
Maximum altitude 02:18:13 63° 202° (SSW) 452 -4.0 -16.6°
Drops below altitude 10° 02:21:27 10° 120° (ESE) 1,453 -1.1 -16.4°
Sets 02:23:31 0° 117° (ESE) 2,310 0.0 -16.3°
